Other Surface Observations
Issued by NWS

Home | Current Version | Previous Version | Text Only | Print | Product List | Glossary On
Versions: 1 2 3 4 5 6 7 8 9 10 11 12 13 14 15 16 17 18 19 20 21 22 23 24 25 26 27 28 29 30 31 32 33 34 35 36 37 38 39 40 41 42 43 44 45 46 47 48 49 50
000
SXUS52 KTAE 062105
OSOTAE
OSOTAE
North Florida/South Alabama/Southwest Georgia Weather Roundup
National Weather Service Tallahassee Florida
400 PM EST TUE DEC 06 2016

Note: "fair" indicates few or no clouds below 12,000 feet with no
significant weather and/or obstructions to visibility.

!FLZ017-115-028-034-025-062200
...North Florida...

CITY           SKY/WX    TMP DP  RH WIND       PRES   REMARKS
TALLAHASSEE    NOT AVBL
APALACHICOLA   MOSUNNY   71  60  68 W14       29.86R
PERRY          SUNNY     75  58  54 W18       29.83R
CROSS CITY     SUNNY     73  61  64 W17       29.85R
JACKSONVILLE   MOSUNNY   81  58  45 W15G25    29.75S
$$

!FLZ112-006-005-002-011-062200
...Florida Panhandle...

CITY           SKY/WX    TMP DP  RH WIND       PRES   REMARKS
MARIANNA       SUNNY     72  57  59 W9        29.83R
BONIFAY        NOT AVBL
PANAMA CITY NW NOT AVBL
TYNDALL AFB    NOT AVBL
TYND DRONE APT NOT AVBL
DE FUNIAK SPR  NOT AVBL
EGLIN AFB      NOT AVBL
DESTIN         SUNNY     69  56  62 VRB7      29.87R
HURLBURT       NOT AVBL
CRESTVIEW      MOSUNNY   66  54  65 CALM      29.88R
PENSACOLA      NOT AVBL
$$

!ALZ063-066-062200
...South Alabama...

CITY           SKY/WX    TMP DP  RH WIND       PRES   REMARKS
DOTHAN         NOT AVBL
OZARK CAIRNS   NOT AVBL
FT RUCKER HELI CLOUDY    66  54  65 W6        29.84S
RUCKER HELI 3  NOT AVBL
RUCKER HELI 2  CLOUDY    66  55  67 W12       29.84R
FLORALA APT    PTSUNNY   65  53  65 VRB3      29.87R
ANDALUSIA      CLOUDY    69  54  58 NW7       29.86R
TROY           CLOUDY    65  55  70 VRB7      29.85R
EUFALA         CLOUDY    68  55  63 W7G17     29.82R
MOBILE         MOSUNNY   66  52  60 NW6       29.89R
$$

!GAZ120>161-062200
...Southwest and South Central Georgia...

CITY           SKY/WX    TMP DP  RH WIND       PRES   REMARKS
THOMASVILLE    FAIR      77  54  44 W7G18     29.81R
BAINBRIDGE     SUNNY     73  55  53 W15       29.83R
MOODY AFB      NOT AVBL
VALDOSTA       NOT AVBL
MOULTRIE       SUNNY     75  55  50 W13G20    29.80S
BLAKELY        MOSUNNY   73  55  53 W9G17     29.83R
ALBANY         SUNNY     74  54  49 W12G21    29.81R
TIFTON           N/A    N/A N/A N/A W10       29.78R
FITZGERALD     NOT AVBL
CORDELE        NOT AVBL
AMERICUS       FAIR      72  50  46 W14G21    29.81R
HOMERVILLE     FAIR      79  50  36 W13G18    29.78R
$$

!GMZ750-755-770-775-062200
...Coastal and Buoy Obs...

STATION/POSITION TIME  TEMP    WIND        PRES    VSBY  WAVE
                       AIR SEA DIR/SP/G                  HT/PER
                 (UTC) (F)     (DEG/KT/KT) (MB)    (MI)  (FT/S)
KEATON BEACH     2100   69     260/ 19/ 21 1010.0R
CEDAR KEY        2000   73     290/  7/ 10 1011.1S
C TOWER          2100   69     290/ 23/ 25 1012.0R
APALACHICOLA BUO 1950   75 75  280/ 17/ 21 1010.8          6/ 7
PANAMA CITY BUOY 1950   76 75              1011.8          9/ 7
MOBILE BUOY      2040   62 74  300/ 12/ 16 1012.9S
ORANGE BCH AL BU 1950   62 69  290/ 10/ 14 1012.0          6/ 7
$$




USA.gov is the U.S. government's official web portal to all federal, state and local government web resources and services.